Voltar ao catálogo

STARLINK-5696

AtivoComunicaçõesVLEO
NORAD 55484·PAYLOAD·🇺🇸 United States

Lançado Feb 2, 2023 de Cape Canaveral Space Force Station

Loading…

Próximas Passagens (próximas 24 horas)

TLE

AtualizadoSource: CelesTrak SupGP

Época: Sep 15, 2026, 02:30 UTC

1 55484C 23015AM  26258.10465278  .00015413  00000+0  55825-3 0  2582
2 55484  43.0039 350.2815 0002058 271.0660 343.3580 15.27569700    17

Acompanhe STARLINK-5696 em tempo real com AllMySat

Download on the App Store